Fernandina Beach, FL

6:02 AM EST on December 14, 2019 (GMT -0500)
Fernandina Beach

Weather History for KFHB - October, 2019

Change the Weather History Date:

Thursday, October 31, 2019

  Actual Average (WUND) Record (WUND)
Temperature  
Mean Temperature 82 °F -  
Max Temperature 90 °F - - (-1)
Min Temperature 69 °F - - (-1)
Cooling Degree Days 16    
Growing Degree Days 32 (Base 50)    
Moisture  
Dew Point 76 °F    
Average Humidity 86    
Maximum Humidity 100    
Minimum Humidity 60    
Precipitation  
Precipitation 0.06 in - - ()
Sea Level Pressure  
Sea Level Pressure 30.00 in    
Wind  
Wind Speed 9 mph (SSW)    
Max Wind Speed 18 mph    
Max Gust Speed 24 mph    
Visibility 10 miles    
Events Rain    
Averages and records for this station are not official NWS values.
T = Trace of Precipitation, MM = Missing Value Source: NWS Daily Summary

Daily Weather History Graph

Daily Weather History Graph

Search for Another Location

Airport or City:

Astronomy

Oct. 31, 2019 Rise Set
Actual Time 7:39 AM EDT 6:38 PM EDT
Civil Twilight 7:14 AM EDT 7:03 PM EDT
Nautical Twilight 6:46 AM EDT 7:32 PM EDT
Astronomical Twilight 6:18 AM EDT 8:00 PM EDT
Moon 11:15 AM EDT (10/31) 9:45 PM EDT (10/31)
Length of Visible Light 11h 48m
Length of Day
10h 59m
Waxing Crescent, 15% of the Moon is Illuminated
Oct 31
Waxing Crescent
Nov 4
First Quarter
Nov 12
Full
Nov 19
Last Quarter
Nov 26
New

Hourly Weather History & Observations

Time (EDT) Temp. Heat Index Dew Point Humidity Pressure Visibility Wind Dir Wind Speed Gust Speed Precip Events Conditions
12:15 AM 78.3 °F - 77.4 °F 97% 30.05 in 10.0 mi SSE 9.2 mph - N/A   Clear
12:35 AM 78.3 °F - 77.4 °F 97% 30.04 in 10.0 mi South 8.1 mph - N/A   Clear
12:55 AM 78.3 °F - 77.2 °F 96% 30.04 in 10.0 mi South 9.2 mph - N/A   Clear
1:15 AM 78.3 °F - 77.0 °F 96% 30.04 in 10.0 mi South 8.1 mph - N/A   Clear
1:35 AM 78.1 °F - 77.0 °F 96% 30.03 in 10.0 mi South 9.2 mph - N/A   Clear
1:55 AM 77.9 °F - 77.0 °F 97% 30.03 in 10.0 mi South 6.9 mph - N/A   Clear
2:15 AM 78.1 °F - 77.2 °F 97% 30.03 in 10.0 mi South 6.9 mph - N/A   Clear
2:35 AM 77.9 °F - 77.2 °F 98% 30.02 in 10.0 mi South 5.8 mph - N/A   Scattered Clouds
2:55 AM 77.7 °F - 77.4 °F 99% 30.01 in 10.0 mi SSW 3.5 mph - N/A   Overcast
3:15 AM 77.4 °F - 77.0 °F 99% 30.01 in 10.0 mi SSW 5.8 mph - N/A   Overcast
3:35 AM 76.8 °F - 76.8 °F 100% 30.00 in 10.0 mi SSW 5.8 mph - N/A   Mostly Cloudy
3:55 AM 76.3 °F - 76.3 °F 100% 30.00 in 10.0 mi SSW 5.8 mph - N/A   Mostly Cloudy
4:15 AM 76.3 °F - 76.3 °F 100% 30.00 in 10.0 mi SSW 5.8 mph - N/A   Scattered Clouds
4:35 AM - - - N/A% 30.00 in 10.0 mi SSW 4.6 mph - N/A   Scattered Clouds
4:55 AM 75.9 °F - - N/A% 30.00 in 10.0 mi SSW 4.6 mph - N/A   Mostly Cloudy
5:35 AM 75.7 °F - 75.2 °F 98% 30.01 in 10.0 mi South 6.9 mph - N/A   Scattered Clouds
5:55 AM 75.7 °F - - N/A% 30.01 in 10.0 mi South 8.1 mph - N/A   Scattered Clouds
6:15 AM 75.6 °F - 75.6 °F 100% 30.01 in 10.0 mi South 8.1 mph - N/A   Clear
6:35 AM 75.4 °F - 75.4 °F 100% 30.02 in 10.0 mi South 8.1 mph - N/A   Clear
6:55 AM 75.2 °F - 75.0 °F 99% 30.02 in 10.0 mi South 6.9 mph - N/A   Clear
7:15 AM 75.2 °F - 75.0 °F 99% 30.02 in 10.0 mi SSW 6.9 mph - N/A   Clear
7:35 AM 74.8 °F - 74.8 °F 100% 30.02 in 10.0 mi SSW 8.1 mph - N/A   Clear
7:55 AM 75.2 °F - 75.0 °F 99% 30.02 in 10.0 mi SSW 6.9 mph - N/A   Clear
8:15 AM 75.7 °F - 75.4 °F 99% 30.03 in 10.0 mi SW 5.8 mph - N/A   Clear
8:35 AM 76.3 °F - 75.9 °F 99% 30.03 in 10.0 mi SSW 6.9 mph - N/A   Clear
8:55 AM 77.0 °F - 76.3 °F 98% 30.04 in 10.0 mi SSW 9.2 mph - N/A   Clear
9:15 AM 77.7 °F - 76.5 °F 96% 30.04 in 10.0 mi SSW 9.2 mph - N/A   Scattered Clouds
9:35 AM 79.0 °F - 76.8 °F 93% 30.04 in 10.0 mi SSW 12.7 mph - N/A   Mostly Cloudy
9:55 AM 79.9 °F - 76.5 °F 89% 30.04 in 10.0 mi SSW 10.4 mph - N/A   Scattered Clouds
10:15 AM 81.1 °F 88.0 °F 76.5 °F 86% 30.04 in 10.0 mi SSW 11.5 mph - N/A   Scattered Clouds
10:35 AM 82.0 °F 89.7 °F 76.3 °F 83% 30.04 in 10.0 mi SW 11.5 mph - N/A   Scattered Clouds
10:55 AM 83.3 °F 91.8 °F 76.3 °F 79% 30.04 in 10.0 mi SSW 13.8 mph - N/A   Scattered Clouds
11:15 AM 84.2 °F 93.4 °F 76.3 °F 77% 30.03 in 10.0 mi SSW 12.7 mph - N/A   Clear
11:35 AM 84.4 °F 93.5 °F 75.9 °F 76% 30.03 in 10.0 mi SSW 15.0 mph - N/A   Scattered Clouds
11:55 AM 85.5 °F 95.0 °F 76.1 °F 73% 30.03 in 10.0 mi SSW 15.0 mph - N/A   Clear
12:15 PM 85.5 °F 95.0 °F 75.7 °F 73% 30.02 in 10.0 mi SSW 15.0 mph - N/A   Clear
12:35 PM 86.0 °F 95.5 °F 75.6 °F 71% 30.01 in 10.0 mi SSW 12.7 mph - N/A   Clear
12:55 PM 86.9 °F 96.4 °F 75.4 °F 68% 30.00 in 10.0 mi SSW 13.8 mph - N/A   Clear
1:15 PM 87.4 °F 97.7 °F 75.7 °F 68% 30.00 in 10.0 mi SSW 13.8 mph - N/A   Clear
1:35 PM 88.2 °F 98.5 °F 75.4 °F 66% 29.98 in 10.0 mi SSW 12.7 mph - N/A   Clear
1:55 PM 88.5 °F 98.8 °F 75.2 °F 65% 29.98 in 10.0 mi SSW 12.7 mph - N/A   Clear
2:15 PM 89.8 °F 100.9 °F 75.6 °F 63% 29.96 in 10.0 mi SSW 12.7 mph - N/A   Clear
2:35 PM 89.1 °F 99.1 °F 75.0 °F 63% 29.96 in 10.0 mi SSW 12.7 mph - N/A   Scattered Clouds
2:55 PM 88.7 °F 99.3 °F 75.4 °F 65% 29.94 in 10.0 mi SSW 11.5 mph - N/A   Scattered Clouds
3:15 PM 88.9 °F 98.1 °F 74.5 °F 62% 29.93 in 10.0 mi SW 11.5 mph - N/A   Scattered Clouds
3:35 PM 89.8 °F 99.7 °F 74.7 °F 61% 29.93 in 10.0 mi SSW 10.4 mph - N/A   Scattered Clouds
3:55 PM 90.0 °F 99.6 °F 74.3 °F 60% 29.92 in 10.0 mi SSW 13.8 mph - N/A   Scattered Clouds
4:15 PM 86.5 °F 95.0 °F 74.3 °F 67% 29.92 in 10.0 mi SSW 11.5 mph - N/A   Scattered Clouds
4:55 PM 82.8 °F 91.3 °F 76.8 °F 82% 29.93 in 10.0 mi SW 8.1 mph - 0.04 in   Scattered Clouds
5:15 PM 83.8 °F 92.8 °F 76.5 °F 78% 29.93 in 10.0 mi SW 10.4 mph - N/A   Clear
5:35 PM 84.0 °F 92.9 °F 76.1 °F 77% 29.93 in 10.0 mi SW 10.4 mph - N/A   Clear
5:55 PM 83.8 °F 92.5 °F 76.1 °F 77% 29.94 in 10.0 mi SW 10.4 mph - N/A   Clear
6:15 PM 83.1 °F 91.3 °F 76.1 °F 79% 29.94 in 10.0 mi SW 9.2 mph - N/A   Clear
6:35 PM 82.2 °F 90.1 °F 76.5 °F 83% 29.95 in 10.0 mi SW 6.9 mph - N/A   Clear
6:55 PM 81.7 °F 89.0 °F 76.5 °F 84% 29.95 in 10.0 mi SW 8.1 mph - N/A   Clear
7:15 PM 81.5 °F 88.3 °F 75.9 °F 83% 29.95 in 10.0 mi SW 8.1 mph - N/A   Clear
7:35 PM 80.8 °F 86.9 °F 75.7 °F 85% 29.96 in 10.0 mi SW 9.2 mph - N/A   Clear
7:55 PM 80.2 °F 85.7 °F 75.6 °F 86% 29.97 in 10.0 mi SW 8.1 mph - N/A   Clear
8:15 PM 80.1 °F 85.2 °F 75.4 °F 86% 29.98 in 10.0 mi SW 6.9 mph - N/A   Clear
8:35 PM 79.9 °F - 75.0 °F 85% 29.98 in 10.0 mi SW 9.2 mph - N/A   Clear
8:55 PM 80.1 °F 84.9 °F 74.8 °F 84% 29.98 in 10.0 mi SW 9.2 mph - N/A   Clear
9:15 PM 79.5 °F - 74.5 °F 84% 29.98 in 10.0 mi WSW 9.2 mph - N/A   Clear
9:35 PM 79.0 °F - 74.5 °F 86% 29.98 in 10.0 mi WSW 8.1 mph - N/A   Clear
9:55 PM 78.8 °F - 74.1 °F 85% 29.99 in 10.0 mi WSW 8.1 mph - N/A   Clear
10:15 PM 79.0 °F - 74.3 °F 85% 29.99 in 10.0 mi WSW 10.4 mph - N/A   Clear
10:35 PM 78.6 °F - 74.3 °F 87% 29.99 in 10.0 mi WSW 9.2 mph - N/A   Scattered Clouds
10:55 PM 76.5 °F - 73.2 °F 90% 30.01 in 10.0 mi WNW 18.4 mph 24.2 mph N/A   Mostly Cloudy
11:15 PM 73.4 °F - 72.5 °F 97% 30.01 in 5.0 mi NW 12.7 mph - 0.01 in Rain Rain
11:35 PM 73.0 °F - 72.1 °F 97% 30.02 in 10.0 mi WNW 12.7 mph - 0.02 in   Overcast
11:55 PM 69.3 °F - 67.5 °F 94% 30.03 in 10.0 mi NW 18.4 mph 23.0 mph 0.02 in   Overcast